Weather History for Rockland, ME

Change the Weather History Date:

Wednesday, April 9, 2014

  Actual Average Record
Temperature  
Mean Temperature 40 °F -  
Max Temperature 51 °F 45 °F 53 °F (2002)
Min Temperature 30 °F 30 °F 26 °F (1997)
Degree Days  
Heating Degree Days 24    
Moisture  
Dew Point 27 °F    
Average Humidity 59    
Maximum Humidity 100    
Minimum Humidity 27    
Precipitation  
Precipitation 0.00 in - - ()
Sea Level Pressure  
Sea Level Pressure 29.58 in    
Wind  
Wind Speed 11 mph (WNW)    
Max Wind Speed 24 mph    
Max Gust Speed 29 mph    
Visibility 10 miles    
Events      
Averages and records for this station are not official NWS values.
T = Trace of Precipitation, MM = Missing Value Source: NWS Daily Summary

Daily Weather History Graph

Daily Weather History Graph

Search for Another Location

Airport:

Trip Planner

Search our weather history database for the weather conditions in past years. The results will help you decide how hot, cold, wet, or windy it might be!

Date:

Astronomy

Apr. 09, 2014 Rise Set
Actual Time 6:03 AM EDT 7:13 PM EDT
Civil Twilight 5:33 AM EDT 7:42 PM EDT
Nautical Twilight 4:58 AM EDT 8:18 PM EDT
Astronomical Twilight 4:21 AM EDT 8:56 PM EDT
Moon 1:47 PM EDT (4/9) 3:01 AM EDT (4/9)
Length of Visible Light 14h 08m
Length of Day
13h 09m
Waxing Gibbous, 71% of the Moon is Illuminated
Apr 9
Waxing Gibbous
Apr 15
Full
Apr 22
Last Quarter
Apr 29
New
May 6
First Quarter

Hourly Weather History & Observations

Time (EDT) Temp. Windchill Dew Point Humidity Pressure Visibility Wind Dir Wind Speed Gust Speed Precip Events Conditions
12:15 AM 44.6 °F 36.6 °F 42.8 °F 93% 29.36 in 10.0 mi West 19.6 mph 27.6 mph N/A   Overcast
12:35 AM 44.6 °F 37.4 °F 39.2 °F 81% 29.37 in 10.0 mi West 16.1 mph 23.0 mph N/A   Overcast
12:55 AM 44.6 °F 37.8 °F 39.2 °F 81% 29.38 in 10.0 mi West 15.0 mph 18.4 mph N/A   Mostly Cloudy
1:15 AM 42.8 °F 35.8 °F 37.4 °F 81% 29.38 in 10.0 mi West 13.8 mph 19.6 mph N/A   Clear
1:35 AM 42.8 °F 35.4 °F 35.6 °F 76% 29.40 in 10.0 mi West 15.0 mph 19.6 mph N/A   Clear
1:55 AM 39.2 °F 34.2 °F 35.6 °F 87% 29.41 in 10.0 mi West 6.9 mph - N/A   Clear
2:15 AM 39.2 °F 33.6 °F 35.6 °F 87% 29.43 in 10.0 mi WSW 8.1 mph - N/A   Clear
2:35 AM 39.2 °F 34.2 °F 33.8 °F 81% 29.44 in 10.0 mi WSW 6.9 mph - N/A   Clear
2:55 AM 39.2 °F 34.2 °F 35.6 °F 87% 29.45 in 10.0 mi WSW 6.9 mph - N/A   Clear
3:15 AM 39.2 °F 33.6 °F 35.6 °F 87% 29.46 in 10.0 mi WSW 8.1 mph - N/A   Clear
3:35 AM 37.4 °F 32.8 °F 33.8 °F 87% 29.46 in 10.0 mi West 5.8 mph - N/A   Clear
3:55 AM 37.4 °F 33.8 °F 33.8 °F 87% 29.46 in 10.0 mi WNW 4.6 mph - N/A   Clear
4:15 AM 35.6 °F 31.7 °F 32.0 °F 87% 29.46 in 10.0 mi West 4.6 mph - N/A   Clear
4:35 AM 35.6 °F 31.7 °F 32.0 °F 87% 29.46 in 10.0 mi West 4.6 mph - N/A   Clear
4:55 AM 35.6 °F - 33.8 °F 93% 29.46 in 10.0 mi Calm Calm - N/A   Clear
5:15 AM 33.8 °F 30.8 °F 30.2 °F 87% 29.48 in 10.0 mi South 3.5 mph - N/A   Clear
5:35 AM 33.8 °F 28.6 °F 30.2 °F 87% 29.49 in 10.0 mi West 5.8 mph - N/A   Clear
5:55 AM 32.0 °F - 28.4 °F 87% 29.50 in 10.0 mi Calm Calm - N/A   Clear
6:15 AM 33.8 °F 29.6 °F 33.8 °F 100% 29.49 in 10.0 mi West 4.6 mph - N/A   Clear
6:35 AM 30.2 °F 26.7 °F 30.2 °F 100% 29.51 in 10.0 mi WSW 3.5 mph - N/A   Clear
6:55 AM 33.8 °F 28.6 °F 32.0 °F 93% 29.51 in 10.0 mi West 5.8 mph - N/A   Clear
7:15 AM 33.8 °F 28.6 °F 32.0 °F 93% 29.53 in 10.0 mi West 5.8 mph - N/A   Clear
7:35 AM 37.4 °F 34.9 °F 33.8 °F 87% 29.55 in 10.0 mi West 3.5 mph - N/A   Clear
7:55 AM 39.2 °F 33.6 °F 35.6 °F 87% 29.55 in 10.0 mi West 8.1 mph - N/A   Clear
8:15 AM 41.0 °F 38.0 °F 35.6 °F 81% 29.55 in 10.0 mi West 4.6 mph - N/A   Clear
8:35 AM 42.8 °F 39.3 °F 35.6 °F 76% 29.55 in 10.0 mi West 5.8 mph - N/A   Clear
8:55 AM 44.6 °F 39.2 °F 35.6 °F 71% 29.54 in 10.0 mi West 10.4 mph - N/A   Clear
9:15 AM 46.4 °F 41.1 °F 37.4 °F 71% 29.54 in 10.0 mi West 11.5 mph - N/A   Clear
9:35 AM 46.4 °F 40.4 °F 35.6 °F 66% 29.54 in 10.0 mi West 13.8 mph 20.7 mph N/A   Clear
9:55 AM 48.2 °F - 35.6 °F 62% 29.54 in 10.0 mi West 15.0 mph 18.4 mph N/A   Mostly Cloudy
10:15 AM 48.2 °F - 35.6 °F 62% 29.54 in 10.0 mi West 15.0 mph 19.6 mph N/A   Mostly Cloudy
10:35 AM 48.2 °F - 35.6 °F 62% 29.54 in 10.0 mi NW 12.7 mph 18.4 mph N/A   Mostly Cloudy
10:55 AM 48.2 °F - 33.8 °F 58% 29.54 in 10.0 mi WNW 10.4 mph 19.6 mph N/A   Scattered Clouds
11:15 AM 48.2 °F - 33.8 °F 58% 29.54 in 10.0 mi WNW 12.7 mph 19.6 mph N/A   Scattered Clouds
11:35 AM 50.0 °F - 33.8 °F 54% 29.54 in 10.0 mi WNW 13.8 mph 20.7 mph N/A   Partly Cloudy
11:55 AM 51.8 °F - 33.8 °F 50% 29.55 in 10.0 mi NW 13.8 mph 20.7 mph N/A   Partly Cloudy
12:15 PM 51.8 °F - 33.8 °F 50% 29.54 in 10.0 mi WNW 12.7 mph 19.6 mph N/A   Scattered Clouds
12:35 PM 51.8 °F - 32.0 °F 47% 29.54 in 10.0 mi West 17.3 mph 24.2 mph N/A   Mostly Cloudy
12:55 PM 51.8 °F - 32.0 °F 47% 29.55 in 10.0 mi West 18.4 mph 28.8 mph N/A   Mostly Cloudy
1:15 PM 50.0 °F - 30.2 °F 47% 29.55 in 10.0 mi WNW 13.8 mph 21.9 mph N/A   Overcast
1:35 PM 51.8 °F - 30.2 °F 44% 29.55 in 10.0 mi WNW 19.6 mph 28.8 mph N/A   Overcast
1:55 PM 50.0 °F - 28.4 °F 43% 29.56 in 10.0 mi WNW 13.8 mph 23.0 mph N/A   Overcast
2:15 PM 50.0 °F - 28.4 °F 43% 29.56 in 10.0 mi WNW 16.1 mph 26.5 mph N/A   Scattered Clouds
2:35 PM 48.2 °F - 28.4 °F 46% 29.57 in 10.0 mi WNW 13.8 mph 21.9 mph N/A   Mostly Cloudy
2:55 PM 50.0 °F - 28.4 °F 43% 29.57 in 10.0 mi West 18.4 mph 27.6 mph N/A   Mostly Cloudy
3:15 PM 48.2 °F - 26.6 °F 43% 29.57 in 10.0 mi West 24.2 mph 27.6 mph N/A   Mostly Cloudy
3:35 PM 48.2 °F - 26.6 °F 43% 29.58 in 10.0 mi West 17.3 mph 25.3 mph N/A   Overcast
3:55 PM 48.2 °F - 26.6 °F 43% 29.58 in 10.0 mi WNW 11.5 mph 21.9 mph N/A   Overcast
4:15 PM 50.0 °F - 23.0 °F 35% 29.59 in 10.0 mi NW 16.1 mph 25.3 mph N/A   Partly Cloudy
4:35 PM 48.2 °F - 21.2 °F 34% 29.59 in 10.0 mi WNW 17.3 mph 26.5 mph N/A   Clear
4:55 PM 48.2 °F - 19.4 °F 32% 29.60 in 10.0 mi NW 12.7 mph 23.0 mph N/A   Clear
5:15 PM 48.2 °F - 17.6 °F 30% 29.61 in 10.0 mi WNW 15.0 mph 28.8 mph N/A   Clear
5:35 PM 48.2 °F - 15.8 °F 27% 29.62 in 10.0 mi WNW 13.8 mph 24.2 mph N/A   Clear
5:55 PM 46.4 °F 40.4 °F 14.0 °F 27% 29.64 in 10.0 mi NW 13.8 mph 21.9 mph N/A   Clear
6:15 PM 46.4 °F 40.7 °F 14.0 °F 27% 29.65 in 10.0 mi WNW 12.7 mph 20.7 mph N/A   Clear
6:35 PM 44.6 °F 39.7 °F 14.0 °F 29% 29.66 in 10.0 mi WNW 9.2 mph 24.2 mph N/A   Clear
6:55 PM 44.6 °F 41.4 °F 12.2 °F 27% 29.68 in 10.0 mi WNW 5.8 mph 19.6 mph N/A   Clear
7:15 PM 42.8 °F 38.0 °F 14.0 °F 31% 29.70 in 10.0 mi WNW 8.1 mph - N/A   Clear
7:35 PM 42.8 °F 37.5 °F 14.0 °F 31% 29.71 in 10.0 mi WNW 9.2 mph - N/A   Clear
7:55 PM 41.0 °F 38.0 °F 14.0 °F 33% 29.73 in 10.0 mi WNW 4.6 mph - N/A   Clear
8:15 PM 39.2 °F 32.0 °F 14.0 °F 36% 29.75 in 10.0 mi WNW 11.5 mph 20.7 mph N/A   Clear
8:35 PM 39.2 °F 33.6 °F 15.8 °F 39% 29.77 in 10.0 mi WNW 8.1 mph - N/A   Clear
8:55 PM 39.2 °F 33.6 °F 15.8 °F 39% 29.79 in 10.0 mi WNW 8.1 mph 17.3 mph N/A   Clear
9:15 PM 39.2 °F 33.6 °F 15.8 °F 39% 29.80 in 10.0 mi WNW 8.1 mph - N/A   Clear
9:35 PM 37.4 °F 32.8 °F 15.8 °F 41% 29.82 in 10.0 mi WNW 5.8 mph - N/A   Clear
9:55 PM 37.4 °F 32.8 °F 15.8 °F 41% 29.83 in 10.0 mi WNW 5.8 mph - N/A   Clear
10:15 PM 35.6 °F 30.7 °F 14.0 °F 41% 29.83 in 10.0 mi WNW 5.8 mph - N/A   Clear
10:35 PM 35.6 °F 30.7 °F 14.0 °F 41% 29.85 in 10.0 mi WNW 5.8 mph - N/A   Clear
10:55 PM 35.6 °F 29.9 °F 14.0 °F 41% 29.86 in 10.0 mi WNW 6.9 mph - N/A   Clear
11:15 PM 35.6 °F 30.7 °F 14.0 °F 41% 29.87 in 10.0 mi WNW 5.8 mph - N/A   Clear
11:35 PM 35.6 °F 32.8 °F 12.2 °F 38% 29.88 in 10.0 mi NW 3.5 mph - N/A   Clear
11:55 PM 33.8 °F 28.6 °F 14.0 °F 44% 29.89 in 10.0 mi WNW 5.8 mph - N/A   Clear